Total_Precipitation_Accumulation
0.76 0.78 0.73 0.78 0.70 0.68 0.76 0.83 0.83 0.84 0.76 0.63 0.59 0.59 0.66 0.58 0.53 0.57 0.72 0.84 1.09 1.28 1.35 1.24 1.11 1.04 1.02 1.02 1.22 1.42 1.74 1.94 1.78 1.70 1.48 1.35 1.40 1.31 1.00 0.91 0.89 0.82 0.84
0.81 0.86 0.83 0.83 0.79 0.73 0.76 0.92 0.86 0.90 0.88 0.81 0.64 0.61 0.65 0.62 0.57 0.58 0.68 0.92 1.02 1.08 1.33 1.49 1.40 1.26 1.13 1.09 1.17 1.35 1.68 1.81 1.58 1.53 1.47 1.36 1.34 1.24 0.91 0.83 0.83 0.76 0.82
0.77 0.82 0.85 0.82 0.81 0.82 0.82 0.88 0.89 0.94 0.85 0.79 0.71 0.66 0.64 0.60 0.53 0.59 0.61 0.69 0.67 0.73 0.98 1.28 1.47 1.41 1.31 1.28 1.26 1.42 1.63 1.55 1.42 1.42 1.45 1.31 1.21 1.17 1.02 0.87 0.83 0.77 0.75
0.84 0.84 0.90 0.91 0.95 0.99 0.96 0.96 0.99 1.01 0.95 0.93 0.89 0.84 0.68 0.66 0.61 0.62 0.60 0.60 0.64 0.59 0.71 0.86 1.09 1.23 1.37 1.47 1.60 1.80 1.70 1.43 1.27 1.27 1.36 1.28 1.18 1.14 1.05 0.99 0.86 0.82 0.75
0.91 1.03 1.07 1.12 1.09 1.10 1.12 1.09 1.10 1.03 1.02 1.01 0.93 0.91 0.79 0.74 0.72 0.63 0.69 0.69 0.69 0.64 0.66 0.61 0.67 0.75 0.96 1.26 1.67 1.97 1.73 1.48 1.27 1.17 1.15 1.14 1.18 1.15 1.02 0.95 0.84 0.78 0.76
1.22 1.37 1.46 1.40 1.39 1.37 1.35 1.31 1.39 1.28 1.11 1.09 1.02 0.95 0.82 0.73 0.79 0.75 0.77 0.77 0.80 0.77 0.72 0.61 0.56 0.49 0.59 0.93 1.37 1.73 1.68 1.53 1.31 1.15 1.09 1.06 1.11 1.14 1.01 0.93 0.84 0.83 0.81
1.61 1.72 1.65 1.73 1.77 1.63 1.62 1.66 1.73 1.68 1.41 1.26 1.33 1.22 0.95 0.72 0.78 0.78 0.75 0.79 0.86 0.98 1.01 0.87 0.72 0.63 0.60 0.68 0.92 1.29 1.55 1.59 1.58 1.36 1.19 1.16 1.13 1.10 1.04 0.91 0.81 0.79 0.82
1.84 1.88 1.96 2.02 2.05 2.04 2.00 1.88 1.96 2.05 1.79 1.56 1.64 1.91 1.51 1.11 0.79 0.65 0.74 0.77 0.87 1.12 1.19 1.03 0.83 0.74 0.70 0.75 0.62 0.79 1.06 1.44 1.64 1.63 1.47 1.34 1.23 1.10 1.08 0.98 0.83 0.77 0.79
2.08 2.10 2.16 2.22 2.22 2.07 2.05 2.14 2.24 2.55 2.35 2.00 1.83 2.05 1.83 1.51 1.22 0.82 0.76 0.83 0.92 1.10 1.22 1.24 1.12 1.04 0.94 0.89 0.79 0.58 0.61 0.98 1.36 1.65 1.71 1.60 1.39 1.23 1.20 1.12 0.97 0.88 0.82
2.01 2.12 2.14 2.13 2.10 2.03 2.09 2.15 2.19 2.55 2.72 2.42 2.11 1.78 1.57 1.53 1.56 1.25 0.92 0.88 0.98 1.00 1.12 1.20 1.15 1.22 1.19 1.11 1.02 0.71 0.57 0.74 1.07 1.52 1.83 1.99 1.74 1.45 1.26 1.18 1.14 1.03 0.90
1.87 1.91 1.93 2.01 2.04 2.08 2.14 2.29 2.39 2.61 2.63 2.62 2.45 2.26 2.05 1.74 1.40 1.42 1.35 1.11 1.09 1.01 1.10 1.23 1.27 1.35 1.34 1.29 1.33 1.01 0.73 0.64 0.85 1.26 1.71 2.05 2.05 1.86 1.60 1.41 1.34 1.25 1.03
1.85 1.79 1.76 1.82 1.94 2.11 2.17 2.25 2.38 2.60 2.70 2.78 2.70 2.45 2.34 2.17 1.86 1.73 1.48 1.35 1.34 1.16 1.13 1.16 1.20 1.32 1.44 1.46 1.35 1.41 1.09 0.73 0.67 0.94 1.24 1.63 2.02 2.18 2.07 1.91 1.75 1.68 1.48
1.56 1.58 1.66 1.75 1.89 2.01 2.09 2.20 2.34 2.38 2.49 2.72 2.73 2.57 2.36 2.14 2.10 1.99 1.87 1.55 1.38 1.20 1.17 1.17 1.13 1.16 1.15 1.37 1.44 1.50 1.19 0.89 0.68 0.70 0.83 0.94 1.26 1.70 2.10 2.17 2.12 2.15 2.11
1.45 1.39 1.43 1.53 1.76 1.97 2.05 2.14 2.15 2.13 2.18 2.36 2.37 2.43 2.39 2.10 2.04 1.94 1.92 1.98 1.71 1.51 1.34 1.16 1.05 1.08 1.04 1.19 1.41 1.45 1.09 0.97 0.80 0.68 0.71 0.78 0.77 0.96 1.38 1.90 2.15 2.27 2.39
1.25 1.19 1.21 1.25 1.38 1.62 1.88 2.04 1.98 1.90 1.87 2.02 2.08 2.17 2.28 2.30 2.21 2.10 2.07 2.10 2.03 1.78 1.59 1.37 1.16 1.04 1.03 1.07 1.36 1.21 1.07 1.02 0.96 0.81 0.74 0.79 0.73 0.69 0.84 1.15 1.40 1.53 1.72
1.04 1.05 1.04 1.09 1.22 1.33 1.54 1.78 1.88 1.83 1.80 1.85 1.96 2.09 2.22 2.32 2.37 2.17 2.13 2.09 1.94 1.83 1.68 1.39 1.18 1.08 1.13 1.06 1.28 1.20 1.15 1.23 1.08 0.96 0.89 0.85 0.85 0.76 0.75 0.87 0.92 0.90 0.92
0.80 0.84 1.00 1.06 1.14 1.22 1.39 1.65 1.83 1.84 1.76 1.77 1.77 1.85 2.02 2.11 2.33 2.30 2.21 2.10 1.96 1.78 1.65 1.50 1.29 1.11 1.17 1.22 1.26 1.29 1.21 1.12 0.99 1.01 0.92 0.88 0.87 0.86 0.82 0.86 0.94 0.84 0.73
0.56 0.68 0.82 0.86 0.91 0.96 1.14 1.44 1.63 1.67 1.64 1.56 1.55 1.67 1.90 2.07 2.28 2.38 2.33 2.19 2.09 1.94 1.83 1.76 1.58 1.35 1.24 1.28 1.37 1.45 1.41 1.28 1.20 1.22 1.11 1.00 0.94 0.88 0.87 0.85 0.88 0.90 0.81
0.58 0.68 0.79 0.84 0.87 0.93 0.96 1.07 1.23 1.36 1.35 1.29 1.33 1.40 1.46 1.67 1.95 2.13 2.15 2.17 2.20 2.16 2.10 1.96 1.76 1.60 1.45 1.36 1.42 1.46 1.44 1.48 1.33 1.35 1.35 1.27 1.19 1.10 1.02 0.97 0.93 0.90 0.90
0.53 0.60 0.66 0.73 0.82 0.88 0.89 0.91 0.94 1.01 1.03 1.09 1.15 1.21 1.25 1.30 1.53 1.71 1.80 1.99 2.22 2.22 2.21 2.13 1.93 1.75 1.61 1.48 1.51 1.56 1.62 1.61 1.49 1.32 1.31 1.26 1.30 1.26 1.16 1.01 0.94 0.89 0.88
0.44 0.51 0.58 0.61 0.67 0.76 0.85 0.88 0.76 0.73 0.80 0.91 0.95 0.93 0.96 1.04 1.17 1.28 1.35 1.70 2.05 2.22 2.19 2.14 2.01 1.90 1.65 1.51 1.39 1.39 1.57 1.83 1.79 1.66 1.57 1.36 1.28 1.20 1.15 1.11 1.00 0.93 0.89
0.42 0.47 0.47 0.50 0.62 0.66 0.79 0.77 0.61 0.59 0.63 0.74 0.83 0.83 0.74 0.74 0.79 0.86 0.94 1.12 1.40 1.65 1.93 2.08 2.01 1.82 1.61 1.50 1.45 1.47 1.51 1.64 1.73 1.61 1.68 1.70 1.61 1.53 1.42 1.29 1.28 1.20 1.10
0.38 0.41 0.41 0.43 0.49 0.62 0.66 0.52 0.49 0.52 0.60 0.65 0.71 0.77 0.70 0.61 0.69 0.74 0.84 0.91 0.93 1.02 1.30 1.64 1.76 1.71 1.78 1.65 1.61 1.54 1.51 1.58 1.62 1.58 1.70 1.76 1.76 1.71 1.63 1.59 1.67 1.53 1.36
0.45 0.44 0.47 0.47 0.48 0.53 0.51 0.41 0.43 0.47 0.53 0.58 0.66 0.75 0.80 0.72 0.72 0.83 0.84 0.88 0.84 0.80 1.00 1.02 1.19 1.48 1.67 1.75 1.71 1.79 1.95 1.92 1.78 1.64 1.57 1.61 1.55 1.54 1.55 1.54 1.65 1.59 1.47
0.44 0.46 0.50 0.51 0.47 0.45 0.45 0.37 0.39 0.47 0.52 0.57 0.59 0.65 0.72 0.70 0.83 0.92 0.92 1.05 1.03 0.91 1.03 1.10 1.14 1.18 1.31 1.47 1.59 1.67 1.75 1.81 1.79 1.68 1.49 1.36 1.32 1.31 1.36 1.36 1.37 1.44 1.44
0.26 0.35 0.36 0.40 0.43 0.43 0.52 0.41 0.41 0.47 0.56 0.66 0.67 0.65 0.78 0.78 0.84 0.83 0.83 1.06 1.08 0.95 0.87 0.93 0.94 0.92 0.88 0.99 1.20 1.38 1.58 1.66 1.64 1.55 1.33 1.20 1.17 1.20 1.19 1.05 0.96 0.97 1.01